EW5029 Weather Reports


Display with metric or nautical units.
time (UTC)temp
F
wind
direction
speed
MPH
gust
MPH
rain 1hr
in
rain 24hr
in
rain mn
in
humidity
%
barometer
mb
20260506110011 59 49 2.0 9.0 0.00 0.00 0.00 58 1010.1
20260506105506 58 331 2.0 9.0 0.00 0.00 0.00 55 1010.2
20260506105005 58 54 3.0 11.0 0.00 0.00 0.00 62 1010.3
20260506104505 58 100 2.0 11.0 0.00 0.00 0.00 61 1010.2
20260506104005 58 136 3.0 10.0 0.00 0.00 0.00 60 1010.4
20260506103504 57 46 2.0 10.0 0.00 0.00 0.00 60 1010.2
20260506103010 57 58 4.0 10.0 0.00 0.00 0.00 60 1010.2
20260506102502 57 16 2.0 10.0 0.00 0.00 0.00 61 1010.2
20260506102102 57 26 4.0 10.0 0.00 0.00 0.00 63 1010.2
20260506101600 57 355 4.0 10.0 0.00 0.00 0.00 65 1010.3
20260506101058 57 115 4.0 10.0 0.00 0.00 0.00 67 1010.2
20260506100558 57 72 2.0 9.0 0.00 0.00 0.00 68 1010.1
20260506100056 56 306 3.0 9.0 0.00 0.00 0.00 69 1010.1
20260506095555 57 124 2.0 11.0 0.00 0.00 0.00 69 1010.1
20260506095057 57 57 4.0 12.0 0.00 0.00 0.00 69 1010.1
20260506094558 57 127 5.0 12.0 0.00 0.00 0.00 69 1010.0
20260506094052 56 51 2.0 9.0 0.00 0.00 0.00 71 1010.0
20260506093552 56 55 2.0 6.0 0.00 0.00 0.00 71 1010.0
20260506093052 56 277 2.0 7.0 0.00 0.00 0.00 71 1010.0
20260506092551 56 32 2.0 10.0 0.00 0.00 0.00 68 1010.0
20260506092052 56 295 2.0 8.0 0.00 0.00 0.00 70 1010.0
20260506091552 56 36 1.0 9.0 0.00 0.00 0.00 72 1010.0
20260506091049 55 24 3.0 9.0 0.00 0.00 0.00 70 1009.9
20260506090549 56 32 3.0 7.0 0.00 0.00 0.00 70 1009.9
20260506090054 56 68 1.0 8.0 0.00 0.00 0.00 71 1009.9
20260506085549 56 335 2.0 10.0 0.00 0.00 0.00 72 1009.9
20260506085049 56 68 3.0 10.0 0.00 0.00 0.00 71 1009.9
20260506084601 56 45 2.0 8.0 0.00 0.00 0.00 72 1009.9
20260506084047 56 329 2.0 7.0 0.00 0.00 0.00 73 1009.8
20260506083546 56 310 2.0 9.0 0.00 0.00 0.00 73 1009.8
20260506083046 56 293 3.0 9.0 0.00 0.00 0.00 73 1009.8
20260506082544 56 27 3.0 9.0 0.00 0.00 0.00 73 1009.8
20260506082045 56 39 3.0 11.0 0.00 0.00 0.00 74 1009.7
20260506081544 56 44 4.0 11.0 0.00 0.00 0.00 74 1009.8
20260506081043 56 59 3.0 10.0 0.00 0.00 0.00 74 1009.8
20260506080545 56 69 1.0 11.0 0.00 0.00 0.00 75 1009.7
20260506073033 53 348 1.0 8.0 0.00 0.00 0.00 79 1009.7
20260506072534 53 294 2.0 10.0 0.00 0.00 0.00 79 1009.8
20260506072032 53 348 2.0 10.0 0.00 0.00 0.00 79 1009.7
20260506071532 53 47 4.0 10.0 0.00 0.00 0.00 79 1009.7
20260506071036 53 336 2.0 6.0 0.00 0.00 0.00 81 1009.6
20260506070530 53 327 2.0 6.0 0.00 0.00 0.00 81 1009.7
20260506062023 51 33 3.0 11.0 0.00 0.00 0.00 83 1009.4
20260506061542 51 306 3.0 8.0 0.00 0.00 0.00 83 1009.3
20260506061020 51 355 2.0 8.0 0.00 0.00 0.00 84 1009.3
20260506060523 51 306 2.0 8.0 0.00 0.00 0.00 84 1009.3
20260506051009 51 304 2.0 10.0 0.00 0.00 0.00 82 1009.3
20260506050515 51 292 3.0 8.0 0.00 0.00 0.00 82 1009.4
20260506045008 50 314 1.0 8.0 0.00 0.00 0.00 83 1009.4
20260506044507 50 350 2.0 8.0 0.00 0.00 0.00 83 1009.4
20260506044004 50 260 2.0 8.0 0.00 0.00 0.00 83 1009.4
20260506043503 50 294 3.0 8.0 0.00 0.00 0.00 83 1009.5
20260506043006 50 43 2.0 9.0 0.00 0.00 0.00 83 1009.4
20260506042505 50 321 2.0 6.0 0.00 0.00 0.00 83 1009.5
20260506042001 50 284 2.0 5.0 0.00 0.00 0.00 83 1009.5
20260506041604 50 302 1.0 5.0 0.00 0.00 0.00 83 1009.4
20260506041058 50 303 1.0 8.0 0.00 0.00 0.00 83 1009.5
20260506040559 50 39 3.0 8.0 0.00 0.00 0.00 83 1009.6
20260506040159 50 285 1.0 6.0 0.00 0.00 0.00 83 1009.6
20260506035559 50 88 3.0 8.0 0.00 0.00 0.00 83 1009.6
20260506035057 50 55 2.0 8.0 0.00 0.00 0.00 83 1009.6
20260506034604 50 297 2.0 9.0 0.00 0.00 0.00 83 1009.6
20260506034058 50 53 2.0 9.0 0.00 0.00 0.00 83 1009.6
20260506033556 50 30 1.0 5.0 0.00 0.00 0.00 83 1009.7
20260506033055 50 317 1.0 7.0 0.00 0.00 0.00 83 1009.6
20260506032555 50 343 1.0 8.0 0.00 0.00 0.00 83 1009.7
20260506032055 50 288 2.0 8.0 0.00 0.00 0.00 83 1009.6
20260506031554 50 5 1.0 5.0 0.00 0.00 0.00 83 1009.7
20260506031056 50 291 2.0 5.0 0.00 0.00 0.00 83 1009.7
20260506030552 50 287 2.0 6.0 0.00 0.00 0.00 83 1009.8
20260506030056 50 317 3.0 6.0 0.00 0.00 0.00 83 1009.9
20260506025551 50 252 2.0 5.0 0.00 0.00 0.00 83 1009.9
20260506025050 50 303 1.0 4.0 0.00 0.00 0.00 84 1009.9
20260506024556 50 344 1.0 4.0 0.00 0.00 0.00 84 1009.9
20260506024047 50 351 1.0 6.0 0.00 0.00 0.00 84 1009.9
20260506023546 50 341 1.0 6.0 0.00 0.00 0.00 84 1009.9
20260506023045 50 287 1.0 6.0 0.00 0.00 0.00 84 1009.9
20260506022544 50 355 1.0 6.0 0.00 0.00 0.00 84 1009.9
20260506022043 50 299 2.0 9.0 0.00 0.00 0.00 84 1009.9
20260506021557 50 269 2.0 9.0 0.00 0.00 0.00 84 1009.9
20260506021041 50 15 1.0 7.0 0.00 0.00 0.00 83 1009.9
20260506020541 50 355 3.0 7.0 0.00 0.00 0.00 83 1009.9
20260506020040 50 52 2.0 6.0 0.00 0.00 0.00 83 1009.9
20260506015539 50 23 2.0 6.0 0.00 0.00 0.00 83 1010.0
20260506015039 50 283 2.0 10.0 0.00 0.00 0.00 83 1010.1
20260506014539 50 46 3.0 10.0 0.00 0.00 0.00 83 1010.0
20260506014040 50 277 2.0 9.0 0.00 0.00 0.00 83 1010.0
20260506013537 50 255 1.0 5.0 0.00 0.00 0.00 83 1010.1
20260506013040 50 71 2.0 5.0 0.00 0.00 0.00 83 1010.1
20260506012638 50 288 2.0 5.0 0.00 0.00 0.00 83 1010.1
20260506012039 50 312 1.0 8.0 0.00 0.00 0.00 83 1010.1
20260506011538 50 290 1.0 8.0 0.00 0.00 0.00 83 1010.1
20260506011037 49 63 2.0 5.0 0.00 0.00 0.00 84 1010.1
20260506010537 49 310 0.0 7.0 0.00 0.00 0.00 84 1010.2
20260506010035 49 292 1.0 4.0 0.00 0.00 0.00 83 1010.2
20260506005534 49 64 1.0 4.0 0.00 0.00 0.00 83 1010.3
20260506005034 49 325 1.0 4.0 0.00 0.00 0.00 83 1010.3
20260506004535 49 34 1.0 4.0 0.00 0.00 0.00 83 1010.4
20260506004034 49 282 2.0 9.0 0.00 0.00 0.00 83 1010.5
20260506003532 49 292 1.0 8.0 0.00 0.00 0.00 83 1010.5
20260506003032 49 30 1.0 5.0 0.00 0.00 0.00 83 1010.6
20260506002531 49 302 1.0 5.0 0.00 0.00 0.00 82 1010.5
20260506002030 50 295 2.0 6.0 0.00 0.00 0.00 82 1010.6
20260506001533 50 331 2.0 6.0 0.00 0.00 0.00 83 1010.6
20260506001030 50 300 1.0 5.0 0.00 0.00 0.00 83 1010.7
20260506000530 50 309 2.0 5.0 0.00 0.00 0.00 83 1010.7
20260506000038 50 310 2.0 5.0 0.00 0.00 0.00 83 1010.7
20260505235533 50 327 2.0 7.0 0.00 0.00 0.00 83 1010.7
20260505235030 50 82 3.0 7.0 0.00 0.00 0.00 83 1010.7
20260505234528 50 307 1.0 5.0 0.00 0.00 0.00 83 1010.7
20260505234029 50 297 1.0 5.0 0.00 0.00 0.00 82 1010.8
20260505233526 50 55 2.0 6.0 0.00 0.00 0.00 82 1010.9
20260505233027 49 333 2.0 6.0 0.00 0.00 0.00 82 1010.9
20260505232525 49 299 0.0 7.0 0.00 0.00 0.00 82 1011.0
20260505232033 49 306 1.0 7.0 0.00 0.00 0.00 82 1011.0
20260505231525 49 80 2.0 5.0 0.00 0.00 0.00 81 1011.1
20260505231024 49 297 0.0 6.0 0.00 0.00 0.00 81 1011.1
20260505230523 49 299 2.0 5.0 0.00 0.00 0.00 81 1011.1
20260505230025 49 317 2.0 4.0 0.00 0.00 0.00 81 1011.1
20260505225524 49 284 1.0 4.0 0.00 0.00 0.00 81 1011.1
20260505225023 49 331 1.0 8.0 0.00 0.00 0.00 80 1011.1
20260505224523 49 288 1.0 8.0 0.00 0.00 0.00 80 1011.1
20260505224023 49 299 1.0 5.0 0.00 0.00 0.00 80 1011.0
20260505223524 49 310 1.0 5.0 0.00 0.00 0.00 79 1011.1
20260505223027 50 271 1.0 4.0 0.00 0.00 0.00 79 1011.2
20260505222519 50 315 2.0 4.0 0.00 0.00 0.00 79 1011.2
20260505222018 50 317 1.0 6.0 0.00 0.00 0.00 78 1011.3
20260505221519 50 51 2.0 9.0 0.00 0.00 0.00 78 1011.3
20260505221018 50 5 1.0 5.0 0.00 0.00 0.00 77 1011.3
20260505220517 50 331 1.0 7.0 0.00 0.00 0.00 77 1011.4
20260505220015 50 319 1.0 7.0 0.00 0.00 0.00 76 1011.4
20260505215515 50 300 1.0 4.0 0.00 0.00 0.00 76 1011.4
20260505215015 50 67 1.0 5.0 0.00 0.00 0.00 76 1011.4
20260505214523 50 52 2.0 10.0 0.00 0.00 0.00 75 1011.5
20260505214015 50 23 3.0 10.0 0.00 0.00 0.00 75 1011.5
20260505213518 50 312 3.0 7.0 0.00 0.00 0.00 75 1011.5
20260505213018 50 334 3.0 7.0 0.00 0.00 0.00 75 1011.6
20260505212514 50 288 1.0 5.0 0.00 0.00 0.00 75 1011.7
20260505212014 50 319 1.0 8.0 0.00 0.00 0.00 75 1011.6
20260505211514 50 17 2.0 9.0 0.00 0.00 0.00 75 1011.5
20260505211014 50 45 2.0 6.0 0.00 0.00 0.00 75 1011.6
20260505210514 50 313 2.0 9.0 0.00 0.00 0.00 75 1011.5
20260505210013 50 294 3.0 9.0 0.00 0.00 0.00 75 1011.5
20260505205513 50 261 1.0 6.0 0.00 0.01 0.00 76 1011.7
20260505205017 50 80 3.0 7.0 0.00 0.01 0.00 76 1011.7
20260505204514 50 22 2.0 7.0 0.00 0.01 0.00 76 1011.8
20260505204011 50 309 1.0 5.0 0.00 0.01 0.00 76 1011.7
20260505203512 50 12 1.0 5.0 0.00 0.01 0.00 76 1011.7
20260505203012 50 16 1.0 6.0 0.00 0.01 0.00 77 1011.7
20260505202512 50 65 2.0 6.0 0.00 0.01 0.00 76 1011.7
20260505202012 50 336 2.0 7.0 0.00 0.01 0.00 76 1011.6
20260505201514 50 57 2.0 9.0 0.00 0.01 0.00 76 1011.7
20260505201012 51 53 3.0 9.0 0.00 0.01 0.00 76 1011.6
20260505200511 51 278 3.0 9.0 0.00 0.01 0.00 76 1011.5
20260505200011 51 293 2.0 8.0 0.00 0.01 0.00 76 1011.5
20260505195509 51 325 2.0 8.0 0.00 0.01 0.00 75 1011.5
20260505195010 51 312 1.0 8.0 0.00 0.01 0.00 75 1011.4
20260505194510 51 317 1.0 9.0 0.00 0.01 0.00 75 1011.4
20260505194010 51 22 2.0 9.0 0.00 0.01 0.00 75 1011.4
20260505193515 51 80 2.0 7.0 0.00 0.01 0.00 75 1011.3
20260505193011 51 340 1.0 8.0 0.00 0.01 0.00 75 1011.2
20260505192511 51 254 3.0 9.0 0.00 0.01 0.00 75 1011.1
20260505192009 51 27 4.0 9.0 0.00 0.01 0.00 75 1011.2
20260505191509 51 80 2.0 13.0 0.00 0.01 0.00 75 1011.1
20260505191008 51 77 3.0 13.0 0.00 0.01 0.00 75 1011.1
20260505190508 52 325 2.0 6.0 0.00 0.01 0.00 75 1011.0
20260505190019 52 56 2.0 11.0 0.00 0.01 0.00 75 1011.0
20260505185510 52 5 2.0 11.0 0.00 0.01 0.00 75 1011.0
20260505185010 52 347 3.0 10.0 0.00 0.01 0.00 75 1011.0
20260505184511 52 72 3.0 10.0 0.00 0.01 0.00 74 1011.0
20260505184007 52 319 3.0 10.0 0.00 0.01 0.00 74 1011.0
20260505183507 52 11 4.0 10.0 0.00 0.01 0.00 74 1011.0
20260505183008 53 196 2.0 9.0 0.00 0.01 0.00 74 1010.9
20260505182511 53 9 3.0 8.0 0.00 0.01 0.00 74 1010.9
20260505182005 53 344 2.0 8.0 0.00 0.01 0.00 74 1010.9
20260505181506 53 312 2.0 12.0 0.00 0.01 0.00 73 1011.0
20260505181004 53 306 3.0 10.0 0.00 0.01 0.00 73 1011.0
20260505180504 54 90 2.0 10.0 0.00 0.01 0.00 73 1011.0
20260505180008 54 46 3.0 8.0 0.00 0.01 0.00 72 1011.0
20260505175509 54 285 2.0 11.0 0.00 0.01 0.00 73 1011.0
20260505175006 54 330 4.0 12.0 0.00 0.01 0.00 72 1011.0
20260505174507 54 339 3.0 11.0 0.00 0.01 0.00 72 1011.0
20260505174002 55 62 3.0 11.0 0.00 0.01 0.00 72 1011.0
20260505173506 55 298 2.0 8.0 0.00 0.01 0.00 72 1011.0
20260505173003 55 327 2.0 9.0 0.00 0.01 0.00 72 1011.0
20260505172502 55 55 3.0 10.0 0.00 0.01 0.00 71 1011.0
20260505172002 55 332 3.0 8.0 0.00 0.01 0.00 71 1011.0
20260505171506 56 271 2.0 10.0 0.00 0.01 0.00 70 1011.0
20260505171003 56 269 2.0 10.0 0.00 0.01 0.00 71 1010.9
20260505170502 56 275 3.0 10.0 0.00 0.01 0.00 71 1010.9
20260505170002 56 15 4.0 10.0 0.00 0.01 0.00 70 1010.9
20260505165502 56 72 2.0 11.0 0.00 0.01 0.00 70 1010.8
20260505165002 56 277 2.0 11.0 0.00 0.01 0.00 69 1010.9
20260505164501 56 281 3.0 11.0 0.00 0.01 0.00 69 1010.9
20260505164002 56 282 2.0 11.0 0.00 0.01 0.00 69 1010.9
20260505163505 56 331 2.0 11.0 0.00 0.01 0.00 69 1010.9
20260505163101 57 45 4.0 10.0 0.00 0.01 0.00 68 1010.9
20260505162600 57 329 3.0 9.0 0.00 0.01 0.00 68 1010.9
20260505162100 57 267 2.0 10.0 0.00 0.01 0.00 68 1011.0
20260505161606 57 54 4.0 10.0 0.00 0.01 0.00 67 1010.9
20260505161059 57 323 3.0 10.0 0.00 0.01 0.00 67 1011.0
20260505160558 57 334 2.0 9.0 0.00 0.01 0.00 67 1011.0
20260505153103 58 83 2.0 8.0 0.00 0.01 0.00 66 1011.0
20260505152557 58 71 2.0 6.0 0.00 0.01 0.00 66 1011.0
20260505152056 58 17 2.0 11.0 0.00 0.01 0.00 67 1011.1
20260505151607 58 101 2.0 13.0 0.00 0.01 0.00 67 1011.1
20260505151056 58 82 1.0 13.0 0.00 0.01 0.00 66 1011.1
20260505150556 58 294 3.0 10.0 0.00 0.01 0.00 67 1011.0
20260505140551 59 82 2.0 10.0 0.00 0.01 0.00 66 1011.3
20260505140110 58 78 2.0 10.0 0.00 0.01 0.00 66 1011.3
20260505124547 59 24 4.0 14.0 0.00 0.01 0.00 65 1011.6
20260505124046 59 323 3.0 11.0 0.00 0.01 0.00 64 1011.7
20260505123545 59 5 5.0 11.0 0.00 0.01 0.00 65 1011.6
20260505123051 59 90 3.0 10.0 0.00 0.01 0.00 65 1011.6
20260505122544 59 69 3.0 9.0 0.00 0.01 0.00 65 1011.7
20260505122043 59 57 2.0 9.0 0.00 0.01 0.00 65 1011.7
20260505121542 59 30 3.0 9.0 0.00 0.01 0.00 64 1011.8
20260505121042 59 322 2.0 9.0 0.00 0.01 0.00 65 1011.8
20260505120541 59 281 2.0 12.0 0.00 0.01 0.00 66 1011.8
20260505120048 59 84 4.0 11.0 0.00 0.01 0.00 65 1011.9
20260505115540 59 69 2.0 10.0 0.00 0.01 0.00 67 1011.9
20260505115039 59 79 4.0 10.0 0.00 0.01 0.00 65 1012.0
20260505114544 59 290 2.0 9.0 0.00 0.01 0.00 65 1012.0
20260505114036 59 330 3.0 9.0 0.00 0.01 0.00 67 1012.0
20260505113537 58 69 2.0 12.0 0.00 0.01 0.00 66 1012.0
20260505113035 58 76 3.0 10.0 0.00 0.01 0.00 68 1012.1
20260505112535 58 62 3.0 9.0 0.00 0.01 0.00 67 1012.0
20260505112035 58 12 2.0 10.0 0.00 0.01 0.00 67 1011.9
20260505111534 58 296 3.0 8.0 0.00 0.01 0.00 68 1011.9
20260505111033 58 84 3.0 9.0 0.00 0.01 0.00 67 1012.0
20260505110533 58 17 2.0 9.0 0.00 0.01 0.00 67 1012.0